Temp
63 63 64 64 64 64 64 64 64 64 64 64 64 64 63 63 63 61 63 71 70 70 69 67 66 65 65 61 62 57 47 43 47 49 54 59 58 63 62 58 58 64 61 63 61
63 63 63 64 64 64 64 64 64 63 63 63 63 63 63 63 60 61 71 72 71 70 68 65 61 63 58 57 58 52 44 49 55 54 53 56 55 57 57 59 58 58 64 61 60
62 62 63 63 63 63 63 63 63 63 63 63 63 63 62 60 61 65 71 72 71 69 69 67 66 63 55 55 55 52 49 53 58 59 57 57 56 58 54 55 59 61 59 60 60
62 62 62 62 63 63 63 63 63 63 63 63 63 62 62 59 53 65 70 70 70 69 67 65 61 56 53 52 58 49 57 58 60 59 57 54 59 57 56 61 64 63 60 60 60
61 61 61 61 62 62 63 63 63 63 62 62 63 62 59 56 62 67 68 68 67 67 64 63 59 57 51 53 54 52 54 58 59 58 57 57 56 54 58 63 62 62 62 60 58
61 60 60 61 61 62 63 63 63 62 62 63 63 62 57 53 67 68 67 65 66 65 62 62 61 61 55 53 53 53 54 56 57 58 56 56 52 54 60 57 62 62 56 53 53
61 60 60 60 61 62 62 62 62 62 62 63 63 61 56 61 67 67 67 65 66 65 61 62 62 59 56 52 57 54 51 53 56 54 55 54 50 53 61 58 61 58 50 51 50
60 60 60 60 61 61 61 62 62 62 62 63 63 56 56 66 64 66 66 64 65 65 65 63 63 60 56 56 54 48 45 42 53 53 53 53 46 58 62 56 58 50 46 48 48
60 59 60 60 60 60 61 61 61 62 63 63 55 53 55 67 63 65 64 63 63 63 63 69 62 55 54 47 43 42 39 41 49 55 53 50 46 57 61 55 56 45 45 46 45
60 59 60 60 60 60 61 61 62 61 62 63 63 52 59 59 62 63 62 64 59 58 58 56 51 47 45 42 36 40 39 42 43 52 50 48 47 52 56 55 50 43 43 43 43
60 60 60 60 61 61 60 56 56 53 54 57 56 56 59 60 63 60 62 62 59 54 47 48 43 41 45 46 46 44 41 40 45 52 46 46 46 46 47 47 42 42 42 43 43
60 60 60 60 61 60 58 52 55 55 50 59 59 58 62 62 55 58 63 55 51 47 48 44 39 49 49 48 46 43 41 40 45 50 46 45 45 42 43 42 43 41 41 41 42
59 59 60 60 60 57 54 56 60 57 47 53 57 56 57 60 54 55 59 53 49 45 45 41 48 51 49 46 45 42 41 40 43 44 43 40 39 39 42 43 43 42 42 42 40
59 59 59 60 55 56 54 59 59 56 40 47 51 54 56 56 50 57 57 54 48 46 45 43 50 49 46 45 46 40 46 45 42 38 34 41 30 36 38 38 39 39 37 38 38
59 59 59 60 57 55 58 60 59 55 32 49 49 58 54 51 51 50 54 51 46 46 45 44 44 43 43 46 48 43 46 44 41 36 32 34 31 35 38 35 35 36 37 37 38
59 58 59 58 57 59 60 60 57 43 32 44 48 47 47 48 48 50 49 52 50 45 44 44 47 47 47 47 47 47 43 41 36 34 26 34 33 33 35 39 36 36 37 38 38
58 58 57 60 56 60 59 55 41 35 47 43 43 46 45 44 44 46 44 41 40 36 36 40 43 45 47 43 43 42 37 29 26 24 26 35 31 35 36 39 39 36 36 36 37
58 57 57 59 58 59 56 47 34 42 42 48 47 45 43 45 44 44 40 38 43 40 36 35 34 43 46 45 42 38 38 27 18 21 25 32 29 33 36 38 39 38 37 38 37
56 53 54 56 57 57 51 39 39 43 49 46 46 41 41 46 46 42 39 38 43 44 38 34 35 42 43 44 46 39 34 39 29 21 20 29 30 35 36 35 36 35 36 35 36
51 50 50 57 57 54 46 42 43 51 51 48 40 44 37 43 42 41 39 42 43 46 45 41 33 40 41 43 41 39 43 32 29 16 17 26 28 29 30 32 34 34 34 35 37
49 47 51 56 55 47 40 41 46 52 52 48 44 42 42 43 44 38 39 42 45 43 46 42 39 35 39 37 37 37 34 34 34 26 20 17 26 36 36 35 34 35 37 36 37
46 42 50 55 43 43 39 44 48 47 49 47 47 46 43 44 43 40 39 43 45 46 42 41 34 24 34 37 38 38 37 36 25 23 28 26 29 38 39 38 38 38 38 37 37
42 42 50 50 39 38 41 43 46 45 44 45 43 45 46 42 38 41 41 40 44 45 42 42 31 18 26 34 34 33 33 34 32 29 21 20 24 37 37 37 37 36 36 37 36
41 36 41 44 43 42 39 39 39 45 45 45 44 46 43 40 43 40 38 40 41 41 44 45 32 29 29 30 32 28 30 33 30 18 26 24 28 30 34 35 36 35 34 33 33
40 36 40 33 38 39 41 39 37 38 44 46 41 43 41 36 37 37 36 35 38 40 37 38 27 26 30 31 30 30 28 30 28 29 23 28 29 36 35 34 35 34 31 31 32
35 35 37 35 39 38 38 35 36 40 41 38 39 41 41 38 37 31 34 33 34 33 31 33 21 24 17 30 30 27 30 29 30 31 28 31 29 38 32 30 28 31 31 31 32
38 39 38 35 33 35 35 36 36 41 38 40 42 37 35 39 39 36 37 36 35 32 30 29 23 16 14 23 22 15 22 29 31 29 29 24 30 27 28 30 28 29 30 32 32
MSLP
1020.56 1020.45 1020.33 1020.23 1020.12 1019.95 1019.75 1019.58 1019.45 1019.22 1018.99 1018.73 1018.53 1018.26 1017.97 1017.64 1017.11 1017.04 1016.45 1015.31 1015.20 1015.35 1015.57 1015.69 1015.70 1015.74 1015.88 1016.33 1016.61 1017.21 1018.33 1018.43 1017.36 1016.56 1015.95 1015.31 1015.17 1014.40 1014.10 1013.93 1013.91 1013.49 1013.57 1013.68 1013.78
1020.68 1020.56 1020.47 1020.31 1020.18 1019.98 1019.80 1019.61 1019.44 1019.27 1019.05 1018.81 1018.54 1018.22 1017.94 1017.72 1017.33 1016.54 1015.32 1015.10 1015.14 1015.35 1015.64 1015.82 1015.98 1016.07 1016.52 1016.73 1016.99 1017.67 1018.53 1017.80 1016.82 1016.32 1016.06 1015.68 1015.50 1015.21 1014.92 1014.54 1014.04 1013.94 1013.68 1013.89 1014.25
1020.65 1020.57 1020.45 1020.37 1020.20 1019.98 1019.80 1019.60 1019.42 1019.26 1019.06 1018.83 1018.55 1018.29 1018.04 1017.81 1017.30 1015.75 1015.20 1015.17 1015.27 1015.42 1015.51 1015.70 1015.87 1016.21 1016.68 1016.85 1017.10 1017.46 1017.69 1017.18 1016.32 1016.10 1015.94 1015.63 1015.48 1015.41 1015.42 1015.02 1014.44 1014.14 1014.15 1014.38 1014.62
1020.56 1020.47 1020.35 1020.23 1020.10 1019.90 1019.69 1019.53 1019.36 1019.20 1019.03 1018.77 1018.45 1018.23 1018.10 1017.89 1016.99 1015.36 1015.21 1015.24 1015.32 1015.47 1015.58 1015.73 1016.06 1016.46 1016.79 1016.95 1016.83 1017.36 1016.83 1016.67 1016.16 1015.82 1015.92 1015.79 1015.57 1015.47 1015.48 1014.59 1014.13 1014.21 1014.57 1014.66 1015.02
1020.39 1020.33 1020.23 1020.07 1019.89 1019.76 1019.60 1019.40 1019.24 1019.07 1018.87 1018.62 1018.40 1018.24 1018.07 1017.70 1016.13 1015.19 1015.29 1015.41 1015.53 1015.65 1015.70 1015.86 1016.19 1016.43 1016.79 1016.82 1016.89 1016.99 1016.81 1016.61 1016.19 1016.05 1015.90 1015.81 1015.82 1015.85 1015.19 1014.42 1014.47 1014.59 1014.57 1015.47 1015.78
1020.25 1020.15 1020.07 1019.93 1019.78 1019.58 1019.50 1019.32 1019.11 1018.89 1018.70 1018.52 1018.35 1018.35 1018.17 1017.34 1015.28 1015.24 1015.36 1015.59 1015.57 1015.69 1015.80 1015.92 1016.01 1016.23 1016.55 1016.77 1016.89 1016.81 1016.87 1016.62 1016.20 1015.74 1015.76 1015.83 1015.68 1015.69 1014.38 1014.36 1014.64 1014.88 1016.30 1016.80 1017.14
1019.96 1019.96 1019.88 1019.82 1019.67 1019.45 1019.28 1019.11 1018.86 1018.64 1018.42 1018.28 1018.26 1018.44 1017.97 1016.21 1015.20 1015.33 1015.45 1015.46 1015.51 1015.68 1015.85 1015.89 1015.89 1016.16 1016.66 1016.89 1016.91 1016.94 1017.15 1016.83 1015.78 1015.63 1015.61 1015.55 1015.82 1015.46 1014.36 1014.70 1015.19 1016.17 1017.39 1017.92 1018.29
1019.64 1019.68 1019.70 1019.64 1019.55 1019.26 1019.06 1018.81 1018.55 1018.40 1018.25 1018.09 1018.16 1018.31 1017.04 1015.47 1015.44 1015.54 1015.46 1015.59 1015.59 1015.63 1015.72 1015.86 1015.87 1016.32 1016.73 1017.09 1017.31 1017.50 1017.67 1017.44 1016.01 1015.68 1015.62 1015.73 1015.98 1015.19 1014.72 1015.22 1016.02 1017.72 1018.56 1018.82 1019.18
1019.33 1019.37 1019.44 1019.47 1019.43 1019.17 1018.83 1018.49 1018.13 1018.04 1018.11 1018.15 1018.33 1018.07 1016.59 1015.38 1015.48 1015.43 1015.50 1015.71 1015.86 1016.03 1016.02 1016.00 1016.14 1016.81 1017.24 1017.90 1018.49 1018.35 1018.16 1017.74 1016.65 1015.77 1015.72 1016.05 1016.38 1015.52 1015.02 1016.03 1016.90 1018.38 1019.25 1019.75 1020.12
1018.97 1019.00 1019.17 1019.25 1019.25 1019.03 1018.62 1018.18 1017.88 1017.89 1018.09 1018.11 1018.00 1018.15 1016.25 1015.49 1015.42 1015.50 1015.53 1015.73 1016.13 1016.46 1016.75 1016.86 1017.32 1017.74 1018.38 1018.67 1018.76 1018.47 1018.46 1017.88 1017.21 1016.34 1016.22 1016.55 1016.72 1016.38 1016.41 1016.80 1017.95 1019.30 1020.14 1020.72 1021.08
1018.61 1018.61 1018.78 1018.91 1018.94 1018.93 1018.63 1018.30 1018.54 1018.33 1017.92 1016.84 1016.59 1016.17 1015.59 1015.68 1015.60 1015.73 1015.68 1015.90 1016.31 1016.90 1017.42 1017.69 1018.29 1018.22 1017.94 1017.95 1017.93 1018.07 1018.18 1018.09 1017.26 1016.67 1016.74 1016.86 1017.31 1017.85 1018.18 1017.94 1019.33 1020.37 1021.03 1021.69 1021.81
1018.16 1018.24 1018.50 1018.60 1018.70 1018.80 1018.93 1018.59 1017.78 1017.96 1017.35 1016.08 1015.88 1015.69 1015.21 1015.22 1015.72 1015.89 1015.92 1016.36 1016.76 1017.27 1017.71 1018.47 1018.32 1017.43 1017.57 1017.94 1018.19 1018.30 1018.25 1017.83 1017.40 1016.78 1016.97 1017.47 1018.11 1019.16 1019.48 1020.24 1020.85 1021.46 1022.04 1022.51 1022.61
1017.64 1017.83 1018.19 1018.34 1018.58 1018.74 1018.46 1017.72 1017.40 1017.65 1017.81 1015.98 1015.30 1015.03 1015.14 1015.28 1015.43 1015.66 1016.02 1016.39 1016.75 1017.38 1017.75 1017.77 1017.18 1016.91 1017.58 1017.74 1018.03 1018.19 1018.15 1017.91 1017.64 1017.38 1017.39 1018.10 1018.89 1019.74 1020.83 1021.32 1021.75 1022.39 1022.96 1023.35 1023.46
1017.23 1017.32 1017.80 1018.17 1018.82 1017.94 1017.84 1017.32 1017.49 1017.77 1017.75 1015.90 1015.28 1014.77 1014.89 1015.04 1015.63 1015.61 1015.73 1016.15 1016.80 1016.95 1017.54 1017.58 1016.62 1016.86 1017.27 1017.54 1017.75 1017.85 1017.28 1017.50 1018.05 1018.56 1018.82 1018.72 1019.72 1020.36 1021.18 1022.20 1022.76 1023.18 1023.89 1024.36 1024.48
1016.46 1016.84 1017.29 1017.58 1017.60 1017.56 1017.18 1017.19 1017.47 1018.04 1017.51 1015.40 1015.25 1015.09 1015.07 1015.48 1015.60 1015.80 1015.81 1015.99 1016.44 1016.76 1017.12 1016.75 1016.47 1016.44 1016.64 1016.41 1016.95 1017.14 1017.01 1017.50 1018.13 1019.10 1019.77 1020.00 1020.88 1020.07 1021.52 1022.73 1023.69 1024.44 1024.46 1024.75 1025.29
1015.69 1016.13 1016.78 1017.17 1017.38 1016.96 1016.91 1017.22 1017.71 1018.26 1016.30 1015.21 1015.12 1015.16 1015.50 1015.66 1015.92 1016.21 1016.23 1016.28 1016.34 1016.59 1016.81 1016.67 1016.30 1016.28 1016.03 1016.23 1016.61 1017.02 1017.83 1018.58 1019.43 1020.01 1020.22 1019.69 1020.73 1020.47 1021.35 1021.73 1023.60 1024.50 1025.03 1025.07 1025.16
1014.94 1015.45 1016.07 1016.26 1016.09 1016.36 1016.78 1017.41 1017.95 1016.77 1015.07 1015.09 1015.17 1015.34 1015.34 1015.75 1016.13 1016.12 1016.42 1016.60 1016.70 1017.04 1017.01 1016.75 1016.34 1015.99 1016.02 1016.50 1016.98 1017.41 1018.64 1020.10 1021.07 1021.58 1020.82 1020.29 1021.16 1020.26 1020.93 1021.25 1022.02 1023.63 1024.77 1025.18 1025.28
1014.06 1014.71 1014.98 1015.17 1015.44 1015.77 1016.50 1017.21 1016.07 1014.62 1014.37 1014.18 1014.50 1015.16 1015.42 1015.46 1015.94 1016.36 1016.64 1016.62 1016.25 1016.43 1016.96 1016.96 1016.64 1016.10 1016.03 1016.14 1016.57 1017.50 1018.43 1019.90 1021.09 1022.41 1021.68 1021.18 1021.17 1021.24 1021.97 1022.43 1023.03 1023.73 1024.38 1024.79 1025.09
1013.64 1014.53 1014.76 1014.66 1015.23 1015.41 1015.75 1015.41 1014.16 1013.82 1013.50 1013.71 1014.39 1015.05 1015.22 1015.12 1015.52 1016.22 1016.56 1016.52 1016.05 1016.03 1016.48 1016.69 1016.52 1016.02 1016.02 1016.24 1016.57 1017.78 1018.66 1019.23 1020.88 1022.94 1022.75 1021.38 1021.42 1022.06 1022.87 1023.40 1023.70 1024.06 1024.40 1024.74 1025.06
1013.52 1014.43 1014.57 1014.26 1014.54 1015.27 1014.46 1014.03 1013.97 1013.31 1013.00 1013.35 1013.88 1014.18 1014.64 1014.96 1015.64 1016.04 1016.22 1015.76 1015.67 1015.65 1015.62 1016.23 1016.81 1016.80 1016.78 1016.74 1017.28 1017.46 1018.18 1019.53 1021.21 1023.05 1022.83 1021.37 1021.14 1021.07 1022.67 1023.35 1023.87 1024.20 1024.28 1024.49 1024.67
1013.48 1014.15 1014.01 1014.05 1014.42 1014.43 1014.04 1013.87 1013.50 1013.18 1012.96 1013.52 1013.95 1014.32 1014.51 1014.70 1015.53 1015.99 1015.79 1015.66 1015.45 1015.65 1015.93 1016.51 1017.10 1018.02 1017.58 1017.50 1017.75 1018.52 1018.76 1019.67 1020.83 1021.93 1022.39 1022.00 1020.35 1019.47 1020.69 1021.96 1023.10 1023.59 1023.64 1024.25 1024.70
1013.19 1013.66 1013.69 1013.81 1014.32 1014.06 1014.11 1013.69 1013.23 1013.07 1013.39 1013.69 1014.00 1014.18 1014.46 1014.82 1015.46 1016.04 1015.93 1015.58 1015.49 1015.58 1016.50 1017.12 1018.14 1018.75 1018.54 1018.28 1018.34 1018.63 1018.97 1019.69 1021.12 1022.09 1022.30 1021.86 1019.99 1019.72 1020.10 1021.22 1022.11 1022.66 1023.25 1024.04 1024.53
1013.06 1013.87 1013.89 1013.76 1013.42 1013.94 1014.00 1013.91 1013.57 1013.43 1013.42 1013.86 1014.10 1014.10 1014.48 1015.06 1015.91 1016.09 1016.09 1016.38 1016.19 1016.36 1016.30 1017.56 1018.97 1019.88 1019.99 1019.66 1019.31 1019.36 1019.78 1020.03 1020.97 1021.67 1021.87 1022.21 1020.51 1020.36 1020.67 1021.43 1021.93 1022.55 1023.14 1023.69 1024.39
1013.63 1014.30 1014.06 1013.95 1013.44 1013.54 1014.08 1013.89 1013.84 1013.49 1013.61 1013.81 1013.98 1014.13 1014.68 1014.99 1015.27 1015.88 1016.46 1016.99 1017.00 1017.06 1017.40 1017.43 1018.82 1019.60 1019.98 1020.13 1020.28 1020.53 1020.57 1020.89 1021.27 1022.10 1022.07 1021.27 1020.84 1020.91 1021.22 1021.74 1022.21 1022.46 1023.02 1023.85 1024.42
1014.14 1013.54 1013.76 1014.15 1013.49 1013.66 1013.84 1014.13 1014.06 1013.81 1013.68 1013.75 1014.33 1014.17 1014.63 1015.38 1015.83 1016.49 1017.04 1017.83 1018.07 1017.98 1018.31 1018.93 1019.88 1020.67 1021.04 1021.29 1021.14 1021.15 1021.06 1021.42 1021.71 1021.74 1021.91 1020.91 1021.32 1020.23 1021.27 1021.65 1021.82 1022.13 1023.09 1023.82 1024.47
1014.26 1013.95 1014.32 1014.30 1013.97 1013.70 1013.64 1013.84 1013.95 1013.79 1013.96 1013.91 1013.95 1014.18 1014.93 1015.44 1015.93 1016.72 1017.27 1017.96 1018.17 1019.25 1019.70 1020.21 1021.06 1021.96 1022.98 1022.68 1022.61 1022.14 1021.10 1021.44 1021.62 1021.64 1021.68 1021.54 1020.90 1020.76 1021.37 1021.84 1022.36 1022.64 1023.01 1023.78 1024.49
1014.45 1014.40 1013.98 1014.40 1014.46 1014.43 1013.44 1013.37 1013.74 1013.87 1014.34 1014.28 1014.36 1015.02 1015.56 1015.72 1016.54 1017.31 1017.59 1017.93 1018.46 1019.40 1020.26 1021.14 1022.26 1023.79 1024.80 1024.59 1024.21 1023.55 1020.47 1020.87 1020.73 1020.62 1021.14 1021.65 1020.76 1021.27 1021.74 1022.30 1022.66 1023.00 1023.36 1024.01 1024.50
Wind_Speed
5 6 6 7 8 8 8 8 9 10 10 10 11 11 11 12 12 2 4 5 3 10 4 3 2 3 4 3 3 3 5 1 4 2 5 5 5 6 5 3 2 3 4 4 3
4 5 6 7 7 8 9 9 9 10 11 12 12 12 12 12 2 4 4 1 5 10 4 4 2 2 3 1 2 5 4 7 5 4 3 3 1 4 4 8 5 4 5 2 4
3 5 6 7 7 8 9 9 10 10 12 12 12 13 11 8 4 3 3 2 5 6 3 3 3 4 1 1 3 4 6 4 5 5 3 4 5 4 3 6 8 11 4 2 4
4 5 6 7 8 8 9 10 10 11 12 13 12 11 10 2 4 2 1 2 3 5 1 3 2 4 3 4 4 2 7 5 5 2 4 2 5 7 5 11 8 9 5 5 5
6 6 6 6 7 9 10 10 11 11 11 12 10 8 3 1 8 2 4 4 4 4 4 4 4 4 4 3 1 4 4 4 5 8 6 2 7 6 12 14 10 9 5 8 8
7 7 7 8 8 8 10 11 11 11 11 9 8 5 1 4 2 6 6 4 4 4 3 4 5 5 3 3 4 2 3 7 7 9 5 6 3 3 9 2 10 6 14 13 13
8 8 8 8 8 8 10 12 12 11 10 8 4 1 1 11 1 5 5 4 4 3 2 1 2 3 2 1 4 2 5 8 8 3 4 6 1 7 11 6 8 8 10 11 13
8 8 8 8 9 9 10 12 12 10 7 4 4 2 7 0 1 2 1 1 2 2 3 1 3 4 3 1 6 3 2 3 4 2 1 4 8 8 8 4 9 11 8 12 14
9 8 8 8 9 10 11 13 14 6 1 4 1 2 8 2 2 2 2 3 3 3 4 2 3 3 3 5 4 2 3 5 8 3 3 3 6 9 11 2 8 9 8 10 10
10 8 8 7 8 10 12 13 2 1 2 2 2 2 3 4 2 3 1 5 4 4 4 3 5 3 3 4 6 5 4 4 5 3 1 5 9 11 11 10 5 8 8 10 12
11 9 8 8 7 8 7 4 2 2 2 9 5 4 2 1 1 1 1 4 4 4 4 1 4 7 12 10 4 3 3 6 5 7 3 5 6 8 10 10 10 9 10 11 13
11 9 9 8 7 4 0 2 3 1 7 8 10 6 3 6 2 3 4 5 4 5 5 4 6 13 3 5 7 5 6 7 6 6 0 5 8 6 12 7 8 9 9 9 9
11 10 10 7 5 2 4 4 3 3 2 7 5 4 3 6 6 6 9 4 5 6 8 9 7 4 7 5 5 5 6 5 8 3 3 2 6 2 4 7 10 10 8 8 8
12 11 10 4 1 3 4 5 4 2 3 6 4 3 2 5 3 1 5 5 3 10 6 6 7 6 5 6 6 7 5 7 2 3 4 3 5 4 3 4 6 7 7 7 7
13 12 11 13 1 3 2 6 5 2 6 2 2 1 2 5 6 1 1 2 6 6 7 8 4 5 6 9 9 8 3 5 3 3 2 3 2 6 6 3 4 5 7 7 6
15 14 12 6 2 3 6 6 2 2 10 3 3 5 4 2 2 2 2 2 1 2 2 6 1 4 7 2 5 4 3 6 5 3 1 8 7 5 6 7 7 6 5 6 7
16 15 12 7 5 8 6 3 3 8 2 5 5 5 4 5 3 5 6 5 6 5 4 1 5 1 2 4 2 4 6 3 4 2 6 4 3 4 7 4 16 15 8 7 6
16 16 8 3 6 12 4 3 10 7 7 3 5 4 6 7 5 6 4 3 6 2 3 5 4 8 4 7 8 6 8 7 7 4 4 4 6 3 4 9 12 10 9 7 7
17 2 2 5 8 4 8 9 7 6 7 9 3 4 5 4 5 4 6 5 6 9 8 6 5 1 1 1 5 4 4 2 6 2 3 5 2 2 4 6 7 9 7 7 7
5 3 2 5 9 6 5 9 6 4 5 3 8 6 7 5 6 7 8 5 5 8 2 4 1 1 1 2 3 4 5 4 3 2 6 4 5 5 10 11 8 7 8 8 7
5 5 3 5 3 3 9 8 5 4 4 5 5 3 5 6 6 6 5 2 5 4 5 5 4 3 2 4 7 1 1 3 3 5 6 2 6 0 13 15 14 11 11 8 8
4 5 3 5 3 1 3 4 4 7 2 3 3 6 7 7 6 6 9 7 4 7 6 1 5 4 6 1 2 1 5 5 6 5 5 1 9 5 13 16 14 11 9 8 7
3 2 0 2 8 8 3 5 3 4 7 8 8 6 5 6 3 7 5 1 3 6 10 7 1 2 8 5 1 4 3 3 4 3 7 6 7 3 6 7 7 7 8 7 7
3 4 2 2 2 6 7 5 5 7 5 4 3 5 5 7 5 5 6 1 3 1 5 4 4 9 12 5 3 4 3 4 5 3 2 7 5 2 5 8 6 6 7 8 8
2 4 3 4 5 8 7 5 11 7 5 13 7 13 8 6 6 8 3 1 3 2 3 4 7 3 2 3 3 5 6 9 8 6 7 6 10 13 11 8 8 7 7 7 6
3 2 2 0 2 11 11 10 11 9 8 6 10 10 9 14 9 7 8 5 6 2 2 2 3 3 2 4 5 6 13 9 11 13 11 14 21 11 5 4 3 7 9 7 6
2 1 4 5 4 6 6 12 11 9 3 2 12 6 8 11 4 3 3 5 7 8 6 5 6 4 6 4 5 10 9 16 11 9 9 12 15 2 5 7 8 7 7 7 6
Wind_Direction
29 22 17 13 7 3 359 355 351 350 345 341 338 335 335 334 320 110 258 228 177 164 167 118 47 26 44 16 19 87 60 256 249 18 297 326 6 327 293 330 351 266 182 265 125
6 0 354 353 351 349 345 343 342 339 336 335 331 329 332 336 334 271 258 12 147 156 109 136 135 89 34 354 17 93 121 226 211 174 271 278 253 304 355 320 293 254 300 67 133
335 338 337 334 334 336 334 332 331 330 333 329 325 323 326 328 336 246 344 242 184 177 108 157 120 131 131 145 200 164 191 217 254 211 209 277 288 197 163 288 246 273 256 212 213
306 313 316 319 322 325 327 328 330 326 326 323 319 318 320 296 283 167 88 115 169 165 51 158 141 136 176 214 194 163 246 228 272 323 326 267 311 314 215 247 255 276 260 269 243
282 289 295 302 310 317 321 324 325 319 319 318 315 325 319 323 252 150 128 114 117 130 163 158 153 165 190 213 316 214 268 264 268 283 261 290 249 247 264 267 289 307 322 5 24
277 283 287 292 298 308 312 314 315 314 317 310 303 330 178 234 124 144 134 131 154 149 176 158 191 194 205 234 183 194 293 275 273 264 256 251 297 152 275 269 315 331 52 49 44
267 274 279 286 295 303 307 310 311 313 315 309 270 234 250 241 155 158 151 178 169 156 170 157 220 157 111 301 317 338 323 317 272 263 227 171 138 232 253 319 296 28 79 63 44
252 261 273 281 291 299 304 303 301 307 313 336 157 171 242 77 40 158 163 57 117 145 125 187 110 125 156 114 2 331 28 337 284 150 142 106 257 272 274 276 285 81 63 56 46
244 249 259 274 289 302 305 302 296 273 224 127 109 169 265 331 166 169 169 163 89 51 38 82 79 148 72 96 2 343 232 211 307 252 124 172 245 261 292 21 300 101 70 61 46
236 236 252 270 289 305 314 307 6 108 197 222 249 350 263 221 151 128 72 128 114 88 40 58 50 99 52 103 218 205 218 249 245 273 106 245 250 270 290 304 65 99 79 66 54
232 229 235 252 277 312 348 4 340 323 216 198 195 228 141 63 31 45 139 107 97 76 157 212 112 203 207 201 173 194 210 238 259 264 270 263 277 3 5 35 89 81 78 70 60
225 225 235 248 277 328 228 232 225 153 301 240 243 256 185 176 148 218 124 141 143 190 125 53 224 232 185 172 214 234 240 247 260 244 256 288 306 42 35 46 69 89 75 70 71
218 217 231 248 300 270 212 221 148 118 242 285 216 199 190 155 208 213 155 158 163 183 191 172 221 172 175 208 203 221 213 230 231 332 287 350 295 62 46 68 76 63 72 64 64
216 205 215 204 254 205 224 169 130 112 288 256 227 234 104 129 223 52 196 155 205 199 186 226 241 191 178 223 174 268 210 214 192 81 238 52 279 207 165 84 69 79 61 57 54
206 205 202 179 297 202 176 139 119 74 284 217 167 140 143 162 139 235 120 85 189 194 128 239 203 171 192 223 162 220 151 152 159 169 42 308 116 269 135 166 130 86 82 74 52
206 198 194 193 175 236 143 122 108 93 245 204 132 166 131 187 163 106 123 27 186 195 209 233 240 180 204 138 175 133 56 36 46 99 280 211 161 251 193 188 146 127 114 103 98
204 197 176 161 208 155 140 130 133 218 304 196 191 169 183 170 184 161 163 179 165 129 230 229 228 252 161 122 44 99 80 319 341 351 232 148 142 257 316 142 152 144 137 126 119
205 191 194 204 153 141 138 166 215 178 204 156 144 133 183 156 209 183 136 220 221 151 121 183 285 167 191 193 180 177 159 164 208 213 248 299 244 275 46 97 119 129 136 134 128
131 99 165 161 157 196 162 204 216 189 183 153 99 158 218 215 155 144 196 210 222 173 179 175 267 120 139 163 135 182 177 190 100 36 47 228 77 94 105 115 130 140 145 156 156
121 145 216 159 165 180 210 199 212 216 123 112 175 171 180 199 163 177 186 201 213 192 182 221 242 347 173 119 47 150 162 79 10 224 252 279 252 203 190 179 174 172 177 185 167
112 161 184 152 161 156 210 213 192 164 128 149 193 165 197 161 187 208 212 242 183 150 146 153 145 251 125 195 188 52 218 81 130 142 190 259 255 11 183 177 179 197 200 180 171
140 184 170 165 152 161 183 192 183 142 12 182 194 200 194 185 180 219 216 218 165 156 157 5 120 181 200 355 339 300 212 164 154 244 243 168 261 333 167 174 183 198 189 178 173
95 76 251 247 190 191 178 239 184 162 164 187 201 191 172 171 171 221 210 313 320 191 160 178 205 22 344 344 20 202 200 139 113 107 212 170 259 58 136 163 203 188 182 170 163
128 137 321 222 113 179 172 194 202 201 186 135 217 151 166 197 215 213 182 149 12 58 27 104 171 174 223 191 145 169 179 179 140 136 173 231 292 159 222 203 217 206 178 174 176
316 161 147 211 196 159 164 166 211 200 210 189 203 206 177 205 194 210 124 123 10 49 59 154 201 130 208 141 171 212 181 193 197 193 191 252 227 241 207 226 244 222 161 168 180
151 175 82 149 196 189 174 194 204 209 170 213 222 188 190 218 188 185 140 187 188 121 126 355 202 100 309 252 244 269 260 183 218 236 245 253 264 260 146 153 163 188 161 160 179
153 9 110 163 167 203 213 210 212 167 233 241 215 152 198 223 127 62 72 110 152 154 166 142 132 92 260 12 45 304 232 219 220 198 206 221 241 130 178 171 175 157 152 175 197